Location: Brno
(49.2000°N, 16.6330°E)
Time: 09:23:57
(UTC+02:00)

ISS - Visible Passes

Search period start: 20 October 2021 00:00
Search period end: 30 October 2021 00:00
Orbit: 417 x 423 km, 51.6° (Epoch: 20 October)

Date Brightness Start Highest point End Pass type
(mag) Time Alt. Az. Time Alt. Az. Time Alt. Az.
21 Oct -0.6 06:15:32 10° SSE 06:16:40 11° SE 06:17:49 10° ESE visible
23 Oct -1.7 06:15:58 10° SSW 06:18:49 26° SE 06:21:40 10° E visible
24 Oct -1.2 05:29:55 12° S 05:31:52 18° SE 05:34:13 10° E visible
25 Oct -0.7 04:45:16 12° SE 04:45:16 12° SE 04:46:17 10° ESE visible
25 Oct -3.1 06:18:17 12° SW 06:21:15 55° SSE 06:24:33 10° ENE visible
26 Oct -2.6 05:33:31 33° S 05:34:15 38° SSE 05:37:25 10° ENE visible
27 Oct -1.2 04:48:39 20° ESE 04:48:39 20° ESE 04:50:13 10° E visible
27 Oct -3.8 06:21:39 19° WSW 06:23:56 82° NNW 06:27:18 10° ENE visible
28 Oct -3.8 05:36:44 75° SSW 05:36:55 78° SSE 05:40:17 10° ENE visible
29 Oct -1.3 04:51:47 23° E 04:51:47 23° E 04:53:16 10° ENE visible
29 Oct -3.5 06:24:47 21° W 06:26:49 58° N 06:30:10 10° ENE visible
